TITAN 3C TRANSTAGE DEB, 28814

Orbit data source: Space-Track

TITAN 3C TRANSTAGE DEB, 28814 is space debris in HEO originally from a launch on Tue, 21 Dec 1965 UTC launched from the Air Force Eastern Test Range (AFETR). Debris objects in space refer to the collection of defunct objects orbiting the Earth. Examples of debris include non-operational satellites, rocket bodies, and fragments generated from explosions, collisions, or faulty payload assembly.

Loading next visibility...
Identifier
28814, 1965-108CB
Orbit
HEO
Country
Flag of USUS
Related business
Manufacturer
Unknown
Mission
Spacecraft
Bus & Motor
Unknown
Mass
Unknown
Launch date (UTC)
1965-12-21 (60 years ago)
Launch vehicle
Unknown
Launch site
Air Force Eastern Test Range (AFETR)
Object type
Payload
Rocket body
Debris
Shape & HBR
Unknown shape, 0.1 m
Radar Cross Section
Small (<0.1 m²)

Expand to show TLE details & history
Last TLE update: 5 months ago

TLE from 5 months ago
0 TITAN 3C TRANSTAGE DEB
1 28814U 65108CB  25351.35967090 -.00000157  00000-0  12086-2 0  9991
2 28814  26.7682  74.9125 6771312 217.6919  80.4192  2.60083678126458
Epoch: 2025-12-17T08:37Z
TLE epoch observation values (Epoch: 2025-12-17T08:37:55.565Z)
Latitude
3.02445°
Longitude
-134.78997°
Altitude
22,490.043 km
Speed
3.126 km/s
True Right ascension
05h 23m 41s
True Declination
3° 01' 12"
Sunlit
Object was in daylight at epoch
Visualization orbit readout
Latitude
Unknown
Longitude
Unknown
Altitude
Unknown
Speed
Unknown
Apparent Right ascension
Unknown
Apparent Declination
Unknown
Sunlit
N/A
Visualization observer readout
Local Sidereal Time
00:50:28
Azimuth
Unknown
Elevation
Unknown
Doppler factor
Unknown
Orbital elements
Apogee altitude
31,087.003 km
Perigee altitude
834.373 km
Semi-major axis
22,338.825 km
Eccentricity
0.67713
Inclination
26.7682°
RAAN
74.9125°
Arg. of periapsis
217.6919°
True anomaly
149.02373°
Mean anomaly
80.4192°
Eccentric anomaly
115.45089°
Mean motion
0.65006 °/min
Orbital period
553.8 mins
BSTAR
0.0012086
Loading maneuver chart data...
Computing Atmospheric mass density...

Documentation

Showing up to 5 results
|